Location: Chuathbaluk
(61.5726°N, 159.2454°W)
Time: 23:32:39
(UTC+00:00)

Transit 4A - Pass Details

Date: 27 November 2020
Orbit: 864 x 980 km, 66.8° (Epoch: 20 January)

Event Time Altitude Azimuth Distance (km) Brightness Sun altitude
Rises 23:14:04 0° 278° (W) 3,683 11.1 6.5°
Reaches altitude 10° 23:16:43 10° 283° (WNW) 2,740 10.4 6.4°
Maximum altitude 23:23:01 54° 0° (N) 1,179 8.3 6.3°
Drops below altitude 10° 23:29:18 10° 78° (ENE) 2,723 10.1 6.1°
Sets 23:31:55 0° 83° (E) 3,659 10.8 6.0°
